Sanford, FL

2:33 PM EDT on October 18, 2017 (GMT -0400)
Orlando Sanford

Weather History for KSFB - August, 2014

Change the Weather History Date:

Saturday, August 9, 2014

  Actual Average Record
Temperature  
Mean Temperature 84 °F -  
Max Temperature 93 °F 92 °F 99 °F (1987)
Min Temperature 75 °F 72 °F 67 °F (1967)
Cooling Degree Days 19    
Growing Degree Days 34 (Base 50)    
Moisture  
Dew Point 74 °F    
Average Humidity 76    
Maximum Humidity 94    
Minimum Humidity 49    
Precipitation  
Precipitation 0.96 in - - ()
Sea Level Pressure  
Sea Level Pressure 30.03 in    
Wind  
Wind Speed 7 mph (SSW)    
Max Wind Speed 25 mph    
Max Gust Speed 33 mph    
Visibility 9 miles    
Events Fog , Rain , Thunderstorm    
Averages and records for this station are not official NWS values.
T = Trace of Precipitation, MM = Missing Value Source: NWS Daily Summary

Daily Weather History Graph

Daily Weather History Graph

Search for Another Location

Airport or City:

Trip Planner

Search our weather history database for the weather conditions in past years. The results will help you decide how hot, cold, wet, or windy it might be!

Date:

Astronomy

Aug. 09, 2014 Rise Set
Actual Time 6:50 AM EDT 8:09 PM EDT
Civil Twilight 6:25 AM EDT 8:34 PM EDT
Nautical Twilight 5:55 AM EDT 9:04 PM EDT
Astronomical Twilight 5:24 AM EDT 9:35 PM EDT
Moon 7:12 PM EDT (8/9) 5:30 AM EDT (8/9)
Length of Visible Light 14h 09m
Length of Day
13h 19m
Waxing Gibbous, 98% of the Moon is Illuminated
Aug 9
Waxing Gibbous
Aug 10
Full
Aug 17
Last Quarter
Aug 25
New
Sep 2
First Quarter

Hourly Weather History & Observations

Time (EDT) Temp. Heat Index Dew Point Humidity Pressure Visibility Wind Dir Wind Speed Gust Speed Precip Events Conditions
1:53 AM 75.9 °F - 72.0 °F 87% 30.03 in 10.0 mi WSW 5.8 mph - N/A   Clear
2:53 AM 75.9 °F - 73.0 °F 91% 30.02 in 10.0 mi East 5.8 mph - N/A   Clear
3:53 AM 75.9 °F - 73.0 °F 91% 30.01 in 10.0 mi ESE 4.6 mph - N/A   Clear
4:53 AM 77.0 °F - 73.0 °F 88% 30.01 in 10.0 mi South 3.5 mph - N/A   Clear
5:53 AM 75.9 °F - 73.9 °F 94% 30.02 in 10.0 mi South 3.5 mph - N/A   Clear
6:53 AM 75.9 °F - 73.9 °F 94% 30.04 in 10.0 mi South 3.5 mph - N/A   Clear
7:53 AM 78.1 °F - 73.9 °F 87% 30.06 in 10.0 mi SSW 4.6 mph - N/A   Clear
8:53 AM 82.0 °F 87.4 °F 73.0 °F 74% 30.07 in 10.0 mi WSW 6.9 mph - N/A   Clear
9:53 AM 84.0 °F 90.2 °F 73.0 °F 69% 30.09 in 10.0 mi SW 9.2 mph - N/A   Clear
10:53 AM 87.1 °F 96.3 °F 75.0 °F 67% 30.08 in 10.0 mi West 4.6 mph - N/A   Clear
11:53 AM 89.1 °F 99.1 °F 75.0 °F 63% 30.07 in 10.0 mi SW 8.1 mph - N/A   Scattered Clouds
1:53 PM 91.9 °F 100.7 °F 73.0 °F 54% 30.05 in 10.0 mi Variable 3.5 mph - N/A   Scattered Clouds
2:53 PM 91.9 °F 99.5 °F 72.0 °F 52% 30.03 in 10.0 mi WSW 8.1 mph - N/A   Scattered Clouds
3:18 PM 93.9 °F 102.1 °F 72.0 °F 49% 30.02 in 10.0 mi WNW 6.9 mph - N/A Thunderstorm Scattered Clouds
3:36 PM 93.0 °F 100.7 °F 72.0 °F 50% 30.01 in 10.0 mi WSW 8.1 mph - N/A   Partly Cloudy
3:53 PM 91.9 °F 101.3 °F 73.9 °F 55% 30.00 in 10.0 mi SSW 9.2 mph - N/A   Mostly Cloudy
4:01 PM 90.0 °F 97.9 °F 73.0 °F 57% 30.00 in 10.0 mi SSW 11.5 mph - N/A Thunderstorm Mostly Cloudy
4:15 PM 82.0 °F 88.6 °F 75.0 °F 79% 30.01 in 1.8 mi West 18.4 mph 31.1 mph 0.08 in Rain , Thunderstorm Heavy Rain
4:18 PM 81.0 °F 86.7 °F 75.0 °F 82% 30.01 in 0.8 mi West 25.3 mph 31.1 mph 0.23 in Rain , Thunderstorm Heavy Thunderstorms and Rain
4:23 PM 79.0 °F - 75.0 °F 88% 30.03 in 0.2 mi NW 18.4 mph 33.4 mph 0.56 in Fog , Rain , Thunderstorm Heavy Thunderstorms and Rain
4:31 PM 78.1 °F - 72.0 °F 81% 30.01 in 0.2 mi East 3.5 mph 33.4 mph 0.94 in Rain , Thunderstorm Heavy Thunderstorms and Rain
4:40 PM 78.1 °F - 73.9 °F 87% 30.01 in 7.0 mi ENE 3.5 mph - 0.96 in Rain , Thunderstorm Light Thunderstorms and Rain
4:53 PM 80.1 °F 84.2 °F 73.0 °F 79% 30.01 in 10.0 mi ESE 8.1 mph - 0.96 in Thunderstorm Thunderstorm
5:12 PM 79.0 °F - 73.0 °F 82% 30.01 in 10.0 mi ENE 4.6 mph - N/A   Mostly Cloudy
5:53 PM 82.0 °F 88.6 °F 75.0 °F 79% 30.00 in 10.0 mi South 6.9 mph - N/A   Clear
6:53 PM 84.9 °F 93.3 °F 75.0 °F 72% 30.00 in 10.0 mi SSE 6.9 mph - N/A   Clear
7:53 PM 82.0 °F 89.4 °F 75.9 °F 82% 30.01 in 10.0 mi SE 5.8 mph - N/A   Clear
8:53 PM 81.0 °F 87.9 °F 77.0 °F 88% 30.02 in 10.0 mi South 4.6 mph - N/A   Clear
9:53 PM 81.0 °F 86.2 °F 73.9 °F 79% 30.04 in 10.0 mi South 5.8 mph - N/A   Clear
11:53 PM 79.0 °F - 75.0 °F 88% 30.05 in 10.0 mi West 3.5 mph - N/A   Clear